EW2549 Weather Reports


Display with metric or nautical units.
time (UTC)temp
F
wind
direction
speed
MPH
gust
MPH
rain 1hr
in
rain 24hr
in
rain mn
in
humidity
%
barometer
mb
20260902043008 68 264 0.0 0.0 0.00 0.03 0.03 51 1006.3
20260902041507 69 264 0.0 0.0 0.00 0.03 0.03 49 1006.4
20260902040007 70 264 0.0 0.0 0.00 0.03 0.03 47 1006.4
20260902034506 70 264 0.0 0.0 0.00 0.04 0.03 46 1006.5
20260902033005 70 242 0.0 0.0 0.00 0.04 0.03 46 1006.6
20260902031508 71 303 0.0 0.0 0.00 0.04 0.03 47 1006.5
20260902030005 71 346 0.0 0.0 0.00 0.04 0.03 44 1006.6
20260902024504 73 346 0.0 0.0 0.00 0.12 0.03 45 1006.4
20260902023003 74 346 0.0 0.0 0.00 0.12 0.03 41 1005.9
20260902021503 75 346 0.0 0.0 0.00 0.12 0.03 38 1005.8
20260902020136 75 346 0.0 0.0 0.00 0.12 0.03 39 1005.8
20260902014503 76 278 0.0 0.0 0.00 0.12 0.03 35 1005.7
20260902013001 77 333 0.0 0.0 0.00 0.12 0.03 37 1005.7
20260902011600 78 11 0.0 0.0 0.00 0.12 0.03 36 1005.6
20260902010059 78 265 0.0 0.0 0.00 0.12 0.03 35 1005.5
20260902004559 80 243 0.0 0.0 0.00 0.14 0.03 34 1005.5
20260902003104 81 190 0.0 0.0 0.00 0.14 0.03 35 1005.2
20260902001558 82 190 0.0 0.0 0.00 0.14 0.03 34 1005.3
20260902000057 83 190 0.0 0.0 0.00 0.14 0.03 35 1005.2
20260901234608 84 190 0.0 0.0 0.00 0.14 0.03 36 1005.3
20260901233059 85 190 0.0 0.0 0.00 0.14 0.03 34 1005.4
20260901231557 86 190 0.0 0.0 0.00 0.14 0.03 32 1005.4
20260901230057 87 190 0.0 0.0 0.00 0.14 0.03 26 1005.3
20260901224555 88 217 0.0 0.0 0.00 0.14 0.03 26 1005.4
20260901223100 86 219 0.0 0.0 0.00 0.14 0.03 30 1005.4
20260901221609 85 234 0.0 0.0 0.01 0.14 0.03 33 1005.6
20260901220048 84 71 0.0 0.0 0.01 0.14 0.03 32 1005.6
20260901214547 82 78 0.0 2.0 0.01 0.14 0.03 34 1005.8
20260901213048 83 92 0.0 0.0 0.01 0.14 0.03 43 1006.0
20260901211544 83 68 0.0 0.0 0.00 0.13 0.02 33 1006.2
20260901210043 83 68 0.0 0.0 0.00 0.13 0.02 29 1006.2
20260901204546 85 88 0.0 4.0 0.00 0.13 0.02 30 1006.2
20260901203057 84 95 1.0 7.0 0.00 0.13 0.02 30 1006.2
20260901201547 85 106 0.0 3.0 0.00 0.13 0.02 31 1006.4
20260901200038 86 93 0.0 4.0 0.00 0.13 0.02 29 1006.4
20260901193033 83 94 0.0 6.0 0.00 0.13 0.02 34 1006.7
20260901191530 82 105 2.0 9.0 0.00 0.13 0.02 35 1006.9
20260901190039 82 102 3.0 8.0 0.00 0.13 0.02 37 1006.9
20260901184524 80 75 0.0 4.0 0.00 0.13 0.02 37 1007.4
20260901183022 81 61 0.0 8.0 0.00 0.13 0.02 38 1007.3
20260901181522 80 74 1.0 7.0 0.00 0.13 0.02 41 1007.7
20260901180016 79 77 1.0 9.0 0.00 0.13 0.02 41 1007.9
20260901174514 79 114 0.0 8.0 0.00 0.13 0.02 44 1008.0
20260901173014 78 113 1.0 9.0 0.00 0.13 0.02 45 1008.3
20260901171510 77 107 1.0 8.0 0.00 0.13 0.02 47 1008.3
20260901170007 75 92 0.0 7.0 0.00 0.13 0.02 49 1008.4
20260901164559 73 77 0.0 3.0 0.00 0.13 0.02 55 1008.4
20260901163104 71 154 0.0 3.0 0.00 0.13 0.02 63 1008.4
20260901161551 67 103 0.0 0.0 0.00 0.13 0.02 71 1008.4
20260901160057 65 132 0.0 0.0 0.00 0.13 0.02 80 1008.3
20260901154542 62 225 0.0 0.0 0.00 0.13 0.02 89 1008.5
20260901153041 61 225 0.0 0.0 0.00 0.13 0.02 91 1008.6
20260901151538 60 225 0.0 0.0 0.00 0.13 0.02 92 1008.4
20260901150038 59 225 0.0 0.0 0.00 0.13 0.02 92 1008.2
20260901144539 59 225 0.0 0.0 0.00 0.13 0.02 92 1008.4
20260901143037 58 225 0.0 0.0 0.00 0.13 0.02 92 1008.5
20260901141537 58 225 0.0 0.0 0.00 0.13 0.02 92 1008.5
20260901140037 57 225 0.0 0.0 0.00 0.13 0.02 91 1008.5
20260901134555 57 225 0.0 0.0 0.00 0.13 0.02 91 1008.4
20260901133035 57 225 0.0 0.0 0.00 0.13 0.02 91 1008.2
20260901131535 56 226 0.0 0.0 0.00 0.13 0.02 90 1007.9
20260901130034 56 225 0.0 0.0 0.00 0.13 0.02 90 1007.4
20260901124534 56 225 0.0 0.0 0.00 0.13 0.02 90 1007.3
20260901123133 56 225 0.0 0.0 0.00 0.13 0.02 90 1007.1
20260901121531 57 225 0.0 0.0 0.00 0.13 0.02 90 1007.0
20260901120031 57 225 0.0 0.0 0.00 0.13 0.02 90 1007.2
20260901114534 57 225 0.0 0.0 0.00 0.13 0.02 90 1007.0
20260901113051 57 225 0.0 0.0 0.00 0.13 0.02 90 1007.1
20260901111529 58 225 0.0 0.0 0.00 0.13 0.02 89 1007.0
20260901110024 58 225 0.0 0.0 0.00 0.13 0.02 89 1007.1
20260901104522 58 225 0.0 0.0 0.00 0.13 0.02 89 1007.3
20260901103020 58 225 0.0 0.0 0.00 0.13 0.02 89 1007.3
20260901101517 59 225 0.0 0.0 0.00 0.13 0.02 89 1007.5
20260901100015 59 225 0.0 0.0 0.00 0.13 0.02 88 1007.8
20260901094514 59 225 0.0 0.0 0.00 0.13 0.02 89 1007.8
20260901093019 59 226 0.0 0.0 0.00 0.13 0.02 89 1008.0
20260901091510 59 226 0.0 0.0 0.00 0.13 0.02 88 1008.1
20260901090013 59 226 0.0 0.0 0.01 0.13 0.02 88 1008.1
20260901084524 60 226 0.0 0.0 0.01 0.13 0.02 88 1008.2
20260901083008 60 226 0.0 0.0 0.01 0.13 0.02 88 1008.2
20260901081504 60 226 0.0 0.0 0.01 0.13 0.02 89 1008.3
20260901080003 60 226 0.0 0.0 0.00 0.12 0.01 88 1008.6
20260901074606 60 225 0.0 0.0 0.00 0.12 0.01 88 1008.9
20260901073104 60 225 0.0 0.0 0.00 0.12 0.01 89 1008.9
20260901071559 61 225 0.0 0.0 0.00 0.12 0.01 89 1008.8
20260901070103 61 225 0.0 0.0 0.01 0.12 0.01 89 1009.0
20260901064556 61 225 0.0 0.0 0.01 0.12 0.01 88 1009.1
20260901063056 61 225 0.0 0.0 0.01 0.12 0.01 88 1008.8
20260901060051 60 225 0.0 0.0 0.00 0.11 0.00 86 1008.8
20260901054551 60 225 0.0 0.0 0.00 0.11 0.11 84 1008.4
20260901053106 61 225 0.0 0.0 0.00 0.11 0.11 85 1008.2
20260901051549 61 225 0.0 0.0 0.00 0.11 0.11 85 1008.4
20260901050049 61 168 0.0 0.0 0.00 0.11 0.11 85 1008.4
20260901044615 61 159 0.0 0.0 0.00 0.11 0.11 85 1008.5